Location: Bay Shore Mobile Home Park
(38.5762°N, 75.0841°W)
Time: 05:53:59
(UTC+00:00)

Hubble Space Telescope - Pass Details

Date: 26 January 2026
Orbit: 478 x 480 km, 28.5° (Epoch: 8 February)

Event Time Altitude Azimuth Distance (km) Brightness Sun altitude
Rises 23:45:00 0° 240° (WSW) 2,512 5.5 -17.5°
Reaches altitude 10° 23:47:44 10° 220° (SW) 1,635 3.9 -18.1°
Maximum altitude 23:50:16 17° 177° (S) 1,252 2.7 -18.5°
Enters shadow 23:51:25 15° 155° (SSE) 1,340 2.6 -18.8°
